Tracking 35274 objects as of 11-Sep-2026
HD Live streaming from Space Station
objects crossing your sky now

STARLINK-2164

Track STARLINK-2164 now!
10-day predictions
STARLINK-2164 is classified as:


NORAD ID: 47750
Int'l Code: 2021-017AE
Launch date: March 4, 2021
Source: United States (US)
Launch site: AIR FORCE EASTERN TEST RANGE (AFETR)
Your satellite tracking list
Your tracking list is empty




NASA's NSSDC Master Catalog

Two Line Element Set (TLE):
1 47750U 21017AE  26254.42376906  .00033611  00000-0  10531-2 0  9996
2 47750  53.1587  49.1046 0000484 355.8515   4.2483 15.32803683306454
Source of the keplerian elements: AFSPC